Hourly Weather Kizlivka

Today, 30 July, Friday

Time Temperature Precipitation Wind Pressure Humidity
00:00 +22°C° 0.5 mm 3 mps 744 mmHg 85%
01:00 +21°C° 0.5 mm 3 mps 744 mmHg 90%
02:00 +20°C° 0.5 mm 3 mps 744 mmHg 95%
03:00 +19°C° 0 mm 3 mps 744 mmHg 95%
04:00 +19°C° 0 mm 3 mps 744 mmHg 96%
05:00 +19°C° 0 mm 3 mps 744 mmHg 96%
06:00 +21°C° 0 mm 3 mps 745 mmHg 90%
07:00 +22°C° 0 mm 4 mps 745 mmHg 83%
08:00 +23°C° 0 mm 4 mps 745 mmHg 77%
09:00 +26°C° 0 mm 4 mps 745 mmHg 68%
10:00 +28°C° 0 mm 4 mps 745 mmHg 60%
11:00 +29°C° 0 mm 4 mps 745 mmHg 51%
12:00 +30°C° 0 mm 4 mps 745 mmHg 47%
13:00 +30°C° 0 mm 5 mps 745 mmHg 42%
14:00 +32°C° 0 mm 5 mps 745 mmHg 38%
15:00 +32°C° 0 mm 5 mps 745 mmHg 38%
16:00 +32°C° 0 mm 4 mps 745 mmHg 39%
17:00 +30°C° 0 mm 4 mps 744 mmHg 39%
18:00 +28°C° 0 mm 3 mps 745 mmHg 45%
19:00 +26°C° 0 mm 3 mps 745 mmHg 51%
20:00 +24°C° 0 mm 2 mps 745 mmHg 57%
21:00 +24°C° 0 mm 2 mps 745 mmHg 58%
22:00 +23°C° 0 mm 2 mps 746 mmHg 59%
23:00 +22°C° 0 mm 1 mps 746 mmHg 61%

Tomorrow, 31 July, Saturday

Time Temperature Precipitation Wind Pressure Humidity
00:00 +22°C° 0 mm 1 mps 746 mmHg 62%
01:00 +21°C° 0 mm 1 mps 746 mmHg 64%
02:00 +21°C° 0 mm 1 mps 746 mmHg 66%
03:00 +21°C° 0 mm 1 mps 746 mmHg 67%
04:00 +21°C° 0 mm 1 mps 746 mmHg 68%
05:00 +21°C° 0 mm 1 mps 746 mmHg 69%
06:00 +23°C° 0 mm 2 mps 746 mmHg 63%
07:00 +25°C° 0 mm 2 mps 747 mmHg 58%
08:00 +27°C° 0 mm 2 mps 747 mmHg 52%
09:00 +28°C° 0 mm 2 mps 747 mmHg 48%
10:00 +29°C° 0 mm 2 mps 747 mmHg 44%
11:00 +31°C° 0 mm 2 mps 747 mmHg 39%
12:00 +31°C° 0 mm 2 mps 747 mmHg 38%
13:00 +32°C° 0 mm 2 mps 747 mmHg 36%
14:00 +32°C° 0 mm 2 mps 746 mmHg 34%
15:00 +32°C° 0 mm 2 mps 746 mmHg 35%
16:00 +32°C° 0 mm 2 mps 746 mmHg 35%
17:00 +32°C° 0 mm 2 mps 746 mmHg 36%
18:00 +30°C° 0 mm 2 mps 746 mmHg 40%
19:00 +28°C° 0 mm 1 mps 746 mmHg 45%
20:00 +26°C° 0 mm 1 mps 746 mmHg 49%
21:00 +25°C° 0 mm 1 mps 746 mmHg 50%
22:00 +25°C° 0 mm 1 mps 746 mmHg 51%
23:00 +24°C° 0 mm 2 mps 747 mmHg 52%

Day after tomorrow, 1 August, Sunday

Time Temperature Precipitation Wind Pressure Humidity
00:00 +24°C° 0 mm 2 mps 746 mmHg 54%
01:00 +23°C° 0 mm 2 mps 746 mmHg 55%
02:00 +23°C° 0 mm 2 mps 746 mmHg 57%
03:00 +23°C° 0 mm 2 mps 746 mmHg 58%
04:00 +22°C° 0 mm 3 mps 746 mmHg 59%
05:00 +21°C° 0 mm 3 mps 746 mmHg 60%
06:00 +24°C° 0 mm 3 mps 746 mmHg 55%
07:00 +27°C° 0 mm 4 mps 746 mmHg 51%
08:00 +29°C° 0 mm 4 mps 746 mmHg 46%
09:00 +30°C° 0 mm 5 mps 746 mmHg 42%
10:00 +33°C° 0 mm 5 mps 746 mmHg 38%
11:00 +35°C° 0 mm 6 mps 746 mmHg 34%
12:00 +35°C° 0 mm 6 mps 746 mmHg 33%
13:00 +35°C° 0 mm 5 mps 746 mmHg 32%
14:00 +36°C° 0 mm 5 mps 745 mmHg 31%
15:00 +35°C° 0 mm 5 mps 745 mmHg 34%
16:00 +35°C° 0 mm 4 mps 745 mmHg 37%
17:00 +34°C° 0 mm 4 mps 745 mmHg 40%
18:00 +30°C° 0.9 mm 4 mps 745 mmHg 53%
19:00 +27°C° 0.9 mm 4 mps 745 mmHg 66%
20:00 +25°C° 0.9 mm 4 mps 745 mmHg 78%
21:00 +24°C° 0.4 mm 3 mps 745 mmHg 81%
22:00 +22°C° 0.4 mm 3 mps 745 mmHg 83%
23:00 +21°C° 0.4 mm 2 mps 745 mmHg 85%

2 August, Monday

Time Temperature Precipitation Wind Pressure Humidity
00:00 +21°C° 0.2 mm 2 mps 745 mmHg 86%
01:00 +21°C° 0.2 mm 2 mps 745 mmHg 86%
02:00 +21°C° 0.2 mm 3 mps 745 mmHg 87%
03:00 +21°C° 0 mm 3 mps 745 mmHg 86%
04:00 +21°C° 0 mm 3 mps 744 mmHg 86%
05:00 +21°C° 0 mm 2 mps 744 mmHg 85%
06:00 +24°C° 0.2 mm 3 mps 744 mmHg 81%
07:00 +25°C° 0.2 mm 4 mps 744 mmHg 77%
08:00 +27°C° 0.2 mm 5 mps 744 mmHg 72%
09:00 +27°C° 0.8 mm 5 mps 744 mmHg 68%
10:00 +28°C° 0.8 mm 5 mps 744 mmHg 64%
11:00 +29°C° 0.8 mm 5 mps 744 mmHg 59%
12:00 +32°C° 0 mm 5 mps 744 mmHg 52%
13:00 +34°C° 0 mm 6 mps 743 mmHg 44%
14:00 +36°C° 0 mm 7 mps 743 mmHg 37%
15:00 +35°C° 0 mm 6 mps 743 mmHg 40%
16:00 +34°C° 0 mm 6 mps 743 mmHg 42%
17:00 +33°C° 0 mm 5 mps 743 mmHg 45%
18:00 +29°C° 0 mm 5 mps 743 mmHg 52%
19:00 +26°C° 0 mm 4 mps 743 mmHg 59%
20:00 +22°C° 0 mm 4 mps 744 mmHg 65%
21:00 +22°C° 0.1 mm 4 mps 744 mmHg 70%
22:00 +21°C° 0.1 mm 4 mps 744 mmHg 74%
23:00 +21°C° 0.1 mm 5 mps 745 mmHg 78%

3 August, Tuesday

Time Temperature Precipitation Wind Pressure Humidity
00:00 +20°C° 0.1 mm 4 mps 745 mmHg 82%
01:00 +20°C° 0.1 mm 3 mps 745 mmHg 86%
02:00 +20°C° 0.1 mm 2 mps 746 mmHg 89%
03:00 +19°C° 0 mm 3 mps 746 mmHg 91%
04:00 +18°C° 0 mm 3 mps 746 mmHg 92%
05:00 +17°C° 0 mm 3 mps 747 mmHg 94%
06:00 +18°C° 0 mm 3 mps 747 mmHg 86%
07:00 +20°C° 0 mm 4 mps 747 mmHg 77%
08:00 +21°C° 0 mm 4 mps 748 mmHg 69%
09:00 +22°C° 0 mm 4 mps 748 mmHg 62%
10:00 +23°C° 0 mm 4 mps 748 mmHg 54%
11:00 +26°C° 0 mm 4 mps 748 mmHg 47%
12:00 +27°C° 0 mm 4 mps 748 mmHg 45%
13:00 +27°C° 0 mm 4 mps 748 mmHg 43%
14:00 +28°C° 0 mm 4 mps 748 mmHg 41%
15:00 +28°C° 0 mm 3 mps 748 mmHg 42%
16:00 +27°C° 0 mm 3 mps 748 mmHg 44%
17:00 +27°C° 0 mm 3 mps 748 mmHg 45%
18:00 +26°C° 0 mm 3 mps 749 mmHg 47%
19:00 +25°C° 0 mm 3 mps 749 mmHg 49%
20:00 +24°C° 0 mm 2 mps 749 mmHg 51%
21:00 +23°C° 0 mm 2 mps 750 mmHg 53%
22:00 +23°C° 0 mm 2 mps 750 mmHg 54%
23:00 +21°C° 0 mm 2 mps 750 mmHg 55%

4 August, Wednesday

Time Temperature Precipitation Wind Pressure Humidity
00:00 +21°C° 0 mm 2 mps 750 mmHg 56%
01:00 +21°C° 0 mm 2 mps 751 mmHg 57%
02:00 +21°C° 0 mm 2 mps 751 mmHg 58%
03:00 +20°C° 0 mm 2 mps 751 mmHg 61%
04:00 +21°C° 0 mm 1 mps 751 mmHg 64%
05:00 +20°C° 0 mm 1 mps 751 mmHg 68%
06:00 +22°C° 0 mm 1 mps 751 mmHg 63%
07:00 +23°C° 0 mm 2 mps 752 mmHg 58%
08:00 +24°C° 0 mm 2 mps 752 mmHg 54%
09:00 +25°C° 0 mm 2 mps 752 mmHg 49%
10:00 +26°C° 0 mm 2 mps 752 mmHg 43%
11:00 +27°C° 0 mm 2 mps 752 mmHg 38%
12:00 +28°C° 0 mm 2 mps 752 mmHg 36%
13:00 +28°C° 0 mm 2 mps 752 mmHg 35%
14:00 +29°C° 0 mm 2 mps 751 mmHg 33%
15:00 +28°C° 0 mm 2 mps 751 mmHg 34%
16:00 +28°C° 0 mm 1 mps 751 mmHg 34%
17:00 +28°C° 0 mm 1 mps 751 mmHg 35%
18:00 +26°C° 0 mm 1 mps 751 mmHg 39%
19:00 +24°C° 0 mm 2 mps 750 mmHg 44%
20:00 +23°C° 0 mm 2 mps 750 mmHg 48%
21:00 +21°C° 0 mm 3 mps 750 mmHg 48%
22:00 +21°C° 0 mm 3 mps 750 mmHg 49%
23:00 +20°C° 0 mm 3 mps 750 mmHg 49%
Show more